PROBA 1 1 26958U 01049B 24289.92915871 .00006902 00000-0 50201-3 0 9999 2 26958 97.9284 268.9668 0061214 20.4430 339.9224 15.02635600251955 CUTE-1 1 27844U 03031E 24289.78620216 .00001089 00000-0 49727-3 0 9999 2 27844 98.6800 295.1712 0010252 148.5999 211.5793 14.23550626104940 CUBESAT XI 4 1 27848U 03031J 24289.76920832 .00000938 00000-0 43604-3 0 9998 2 27848 98.6831 295.3278 0009811 164.4600 195.6882 14.22951126104683 GENESIS 1 1 29252U 06029A 24289.77949360 .00043519 00000-0 82570-3 0 9994 2 29252 64.5106 116.7038 0033218 305.6524 54.1521 15.47451205 9193 GENESIS 2 1 31789U 07028A 24289.91121050 .00039371 00000-0 82885-3 0 9996 2 31789 64.4867 162.7627 0011306 246.1109 113.8842 15.45005352956074 APRIZESAT 4 1 35684U 09041D 24289.90519177 .00002508 00000-0 31757-3 0 9995 2 35684 98.2227 340.0584 0045802 132.7350 227.7731 14.82017435821052 APRIZESAT 3 1 35686U 09041F 24289.90058829 .00004427 00000-0 42119-3 0 9995 2 35686 98.1291 47.6355 0065266 276.4310 82.9479 14.92384278825369 PROBA 2 1 36037U 09059B 24289.77335758 .00000931 00000-0 23039-3 0 9995 2 36037 98.2334 111.2149 0013477 7.8524 352.2881 14.54164787792933 APRIZESAT 5 1 37792U 11044E 24289.68770955 .00002754 00000-0 37446-3 0 9995 2 37792 98.2319 196.2721 0054971 161.5201 198.8023 14.78620414708634 APRIZESAT 6 1 37793U 11044F 24289.96698948 .00002348 00000-0 35154-3 0 9991 2 37793 98.2821 176.2364 0043385 231.2314 140.6717 14.75058218707279 PROBA V 1 39159U 13021A 24289.91937303 .00000321 00000-0 15963-3 0 9997 2 39159 98.3118 289.7349 0005350 111.1920 248.9831 14.23351847594437 CUSAT 1 1 39266U 13055B 24289.88091090 .00060658 -29815-6 92969-3 0 9995 2 39266 80.9640 17.2977 0383401 106.0768 258.3017 15.00085216579213 APRIZESAT 7 1 39416U 13066A 24289.83457181 .00004854 00000-0 52220-3 0 9996 2 39416 97.6864 245.2053 0039974 70.6190 289.9342 14.88363526590479 APRIZESAT 8 1 39425U 13066K 24289.72281832 .00003059 00000-0 35720-3 0 9994 2 39425 97.7431 238.6394 0049662 128.6744 231.8930 14.84984192589121 BUGSAT 1 1 40014U 14033E 24289.86970181 .00010350 00000-0 69453-3 0 9994 2 40014 98.1130 337.6852 0035471 88.8505 271.6785 15.06518451563793 SAUDISAT 4 1 40016U 14033G 24289.88475546 .00002454 00000-0 34354-3 0 9991 2 40016 97.6793 89.8571 0045094 255.9794 103.6402 14.77729165556028 TABLETSAT AURORA 1 40017U 14033H 24289.85472600 .00011746 00000-0 80846-3 0 9998 2 40017 98.1074 318.8482 0015867 122.3970 237.8793 15.05955187563119 APRIZESAT 9 1 40018U 14033J 24289.83115742 .00001805 00000-0 28179-3 0 9994 2 40018 97.8212 70.7562 0068197 0.5493 359.5778 14.72512384553827 APRIZESAT 10 1 40019U 14033K 24289.83307886 .00001959 00000-0 32279-3 0 9993 2 40019 97.8862 62.9133 0081956 60.2083 300.7241 14.69387135552712 AISAT 1 40054U 14034B 24289.88650386 .00016208 00000-0 15802-2 0 9999 2 40054 98.3189 151.7917 0010893 85.6518 274.5944 14.92505508555793 CANX-4 1 40055U 14034C 24289.79846287 .00003278 00000-0 45202-3 0 9998 2 40055 98.3845 129.5924 0013538 160.8371 199.3351 14.78880315554371 CANX-5 1 40056U 14034D 24289.80282960 .00003236 00000-0 44615-3 0 9994 2 40056 98.3846 129.6062 0013540 161.0663 199.1053 14.78890935545182 TDS 1 1 40076U 14037H 24289.73852474 .00017583 00000-0 14868-2 0 9990 2 40076 98.3274 219.7540 0005127 154.3490 205.7985 14.98119034556463 TIANTUO 2 1 40144U 14053B 24289.85640524 .00092658 00000-0 60148-3 0 9997 2 40144 97.1120 12.5305 0003439 301.6858 58.4073 15.75711767566901 TECHNOSAT 1 42829U 17042E 24289.73674780 .00006960 00000-0 58689-3 0 9996 2 42829 97.3874 104.2249 0012687 29.7071 330.4870 14.98394241395217 FLYING LAPTOP 1 42831U 17042G 24289.94149260 .00004702 00000-0 41982-3 0 9992 2 42831 97.3897 104.0208 0013110 34.2006 326.0058 14.96320415395184